Home > Weather > Gambier Islands > Past weeks

Flag for French Polynesia Past Weather in Gambier Islands, French Polynesia — Yesterday and Last 2 Weeks

Now
72 °F

Scattered clouds.


Feels Like: 72 °F
Forecast: 67 / 74 °F
Wind: 6 mph from Northwest

Location: Rikitea

Current Time: Jul 26, 2016 at 4:51:35 PM

Latest Report: Jul 26, 2016 at 4:00 PM


Visibility: 19 mi

Pressure: 29.94 "Hg

Humidity: 82%

Dew Point: 67 °F

Location of Gambier IslandsLocation

Past Weather in Gambier Islands — Graph

°F

Gambier Islands Temperature Yesterday

Maximum temperature yesterday: 71 °F (at 1:00 PM)
Minimum temperature yesterday: 67 °F (at 8:00 AM)
Average temperature yesterday: 69 °F

High & Low Weather Summary for the Past Weeks

 TemperatureHumidityPressure
High77 °F (Jul 18, 12:00 PM)95% (Jul 23, 3:00 PM)30.29 "Hg (Jul 23, 3:00 PM)
Low66 °F (Jul 22, 5:00 AM)55% (Jul 21, 2:00 PM)29.93 "Hg (Jul 26, 2:00 PM)
Average71 °F77%30.13 "Hg
* Reported Jul 11 3:00 PM — Jul 26 3:00 PM, Gambier Islands, Weather by CustomWeather, © 2016

Note: Actual official high and low records may vary slightly from our data, if they occured in-between our weather recording intervals... More about our weather records

Advertising

Gambier Islands Weather History for the Previous 24 Hours

Scroll right to see more
 ConditionsComfort  
Time TempWeatherWind HumidityBarometerVisibility
3:00 PM
Tue, Jul 26
74 °FOvercast.9 mph82%29.93 "Hg19 mi
2:00 PM75 °FScattered clouds.9 mph78%29.93 "Hg25 mi
1:00 PM75 °FPassing clouds.10 mph72%29.95 "Hg25 mi
12:00 PM75 °FScattered clouds.10 mph74%29.98 "Hg25 mi
11:00 AM75 °FPartly sunny.9 mph73%29.99 "Hg25 mi
10:00 AM74 °FPassing clouds.7 mph77%30.01 "Hg25 mi
9:00 AM73 °FPassing clouds.6 mph80%30.00 "Hg25 mi
8:00 AM71 °FPassing clouds.8 mph85%29.99 "Hg19 mi
7:00 AM69 °FPassing clouds.7 mph84%29.99 "Hg12 mi
6:00 AM67 °FPassing clouds.8 mph85%29.97 "Hg12 mi
5:00 AM67 °FMild.10 mph90%29.96 "HgN/A
4:00 AM66 °FMild.5 mph93%29.96 "HgN/A
3:00 AM66 °FMild.6 mph95%29.98 "HgN/A
2:00 AM66 °FMild.8 mph93%30.01 "HgN/A
1:00 AM69 °FMild.6 mph94%29.98 "HgN/A
12:00 AM69 °FMild.12 mph95%29.99 "HgN/A
11:00 PM
Mon, Jul 25
70 °FMild.10 mph93%30.01 "HgN/A
10:00 PM70 °FMild.10 mph90%30.03 "HgN/A
9:00 PM69 °FMild.8 mph91%30.05 "HgN/A
8:00 PM69 °FMild.6 mph91%30.04 "HgN/A
7:00 PM68 °FMild.6 mph92%30.03 "HgN/A
6:00 PM68 °FMild.6 mph93%30.03 "HgN/A
5:00 PM67 °FMild.3 mph92%30.03 "HgN/A
4:00 PM68 °FLight rain. Overcast.6 mph91%30.02 "Hg2 mi
Weather by CustomWeather, © 2016

See weather overviewHow to use our weather pages